M I D A S
Marine Information and Data Acquisition System
Tripno 2141 of the Zeeleeuw from 2011-07-08 05:02:26 to 2011-07-08 15:22:40
Back to CruiseResearch ActivitiesStationsMapUnderway DataData graphs

EquipmentUnitsComments
TimeDGPSUTC
LatitudeDGPSDM.mWGS84
LongitudeDGPSDM.mWGS84
SpeedMeteo Stationm/sRelative wind speed
DirectionMeteo StationdegRelative wind direction
TemperatureMeteo Stationdeg CelciusAir temperature
PressureMeteo StationPaAtmospheric pressure
HumidityMeteo Station%Relative humidity
Missing or incorrect values are displayed as -999
Metereological data collected by the RV Zeeleeuw from 2011-07-08 05:06:23 to 2011-07-08 15:38:19
Time Latitude Longitude Speed Direction Temperature Pressure Humidity
2011-07-08 05:07 51°13.661 2°55.921 -999 26 14.1 100600 49
2011-07-08 05:08 51°13.688 2°55.803 0.1 31 14.1 100590 50
2011-07-08 05:09 51°13.696 2°55.735 3 35 14.1 100600 50
2011-07-08 05:10 51°13.722 2°55.744 -999 78 14.1 100600 49
2011-07-08 05:11 51°13.785 2°55.692 -999 282 14.1 100600 50
2011-07-08 05:12 51°13.908 2°55.587 -999 282 14.1 100600 50
2011-07-08 05:13 51°14.055 2°55.481 -999 282 14.1 100600 50
2011-07-08 05:14 51°14.209 2°55.359 -999 282 14.1 100600 49
2011-07-08 05:15 51°14.366 2°55.201 5.7 285 14.1 100590 50
2011-07-08 05:16 51°14.533 2°55.024 6.3 280 14.1 100580 49
2011-07-08 05:17 51°14.724 2°54.865 5.3 285 14.2 100590 49
2011-07-08 05:18 51°14.904 2°54.681 5.4 278 14.2 100590 49
2011-07-08 05:19 51°15.08 2°54.488 5.7 279 14.3 100590 49
2011-07-08 05:20 51°15.256 2°54.302 8.2 280 14.4 100590 50
2011-07-08 05:21 51°15.431 2°54.096 6.8 281 14.4 100580 50
2011-07-08 05:22 51°15.597 2°53.886 6.9 283 14.5 100580 50
2011-07-08 05:23 51°15.748 2°53.654 6.3 282 14.5 100580 50
2011-07-08 05:24 51°15.911 2°53.437 8.4 282 14.5 100590 50
2011-07-08 05:25 51°16.085 2°53.242 6 283 14.7 100580 49
2011-07-08 05:26 51°16.283 2°53.096 5.7 285 14.8 100580 50
2011-07-08 05:27 51°16.479 2°52.948 8.5 280 14.8 100580 49
2011-07-08 05:28 51°16.67 2°52.788 8.1 280 14.7 100580 49
2011-07-08 05:29 51°16.866 2°52.638 5.7 286 14.7 100580 50
2011-07-08 05:30 51°17.063 2°52.488 5.3 277 14.8 100580 50
2011-07-08 05:31 51°17.255 2°52.324 6.5 280 14.8 100570 50
2011-07-08 05:32 51°17.453 2°52.173 6.8 283 14.9 100580 50
2011-07-08 05:33 51°17.654 2°52.027 7.4 279 14.8 100570 50
2011-07-08 05:34 51°17.852 2°51.874 6 286 14.9 100560 50
2011-07-08 05:35 51°18.04 2°51.709 6.1 286 14.8 100570 48
2011-07-08 05:36 51°18.241 2°51.55 7.9 280 14.8 100570 49
2011-07-08 05:37 51°18.441 2°51.402 7.8 278 14.9 100560 50
2011-07-08 05:38 51°18.634 2°51.247 8.8 285 15 100560 50
2011-07-08 05:39 51°18.832 2°51.086 9.2 279 15 100560 50
2011-07-08 05:40 51°19.029 2°50.934 6.1 285 15 100560 50
2011-07-08 05:41 51°19.233 2°50.801 7.8 281 15 100570 50
2011-07-08 05:42 51°19.436 2°50.671 10.6 282 15.1 100560 49
2011-07-08 05:43 51°19.634 2°50.532 8.4 286 15.2 100560 47
2011-07-08 05:44 51°19.838 2°50.404 8.9 279 15.1 100560 48
2011-07-08 05:45 51°20.043 2°50.275 5.4 285 15.1 100560 49
2011-07-08 05:46 51°20.242 2°50.135 6.4 280 15.2 100560 50
2011-07-08 05:47 51°20.443 2°50.005 4.6 283 15.2 100560 49
2011-07-08 05:48 51°20.671 2°49.944 2.9 285 15.2 100570 49
2011-07-08 05:49 51°20.899 2°50.002 4.6 82 15.2 100570 49
2011-07-08 05:50 51°21.125 2°50.094 0.8 83 15.2 100570 50
2011-07-08 05:51 51°21.359 2°50.18 3.9 78 15.4 100570 49
2011-07-08 05:52 51°21.583 2°50.256 -999 78 15.5 100570 48
2011-07-08 05:53 51°21.815 2°50.29 4.8 285 15.5 100570 49
2011-07-08 05:54 51°22.037 2°50.244 5.6 281 15.3 100560 47
2011-07-08 05:55 51°22.258 2°50.182 6.7 284 15.3 100560 49
2011-07-08 05:56 51°22.475 2°50.126 5.9 283 15.4 100560 48
2011-07-08 05:57 51°22.699 2°50.069 6.2 279 15.4 100560 48
2011-07-08 05:58 51°22.919 2°50.011 6.4 286 15.5 100560 49
2011-07-08 05:59 51°23.142 2°49.953 6 284 15.4 100570 47
2011-07-08 06:00 51°23.368 2°49.89 7.4 280 15.4 100560 48
2011-07-08 06:01 51°23.585 2°49.823 6.5 279 15.4 100560 49
2011-07-08 06:02 51°23.81 2°49.757 6.1 282 15.5 100560 49
2011-07-08 06:03 51°24.033 2°49.697 8.8 282 15.4 100560 48
2011-07-08 06:04 51°24.256 2°49.637 4.4 281 15.4 100550 49
2011-07-08 06:05 51°24.478 2°49.575 7.2 279 15.4 100560 49
2011-07-08 06:06 51°24.698 2°49.511 7.1 21 15.4 100560 48
2011-07-08 06:07 51°24.92 2°49.447 4.9 279 15.4 100570 47
2011-07-08 06:08 51°25.141 2°49.389 6.7 285 15.5 100560 48
2011-07-08 06:09 51°25.36 2°49.308 11.4 285 15.5 100560 48
2011-07-08 06:10 51°25.575 2°49.216 7.7 279 15.6 100560 48
2011-07-08 06:11 51°25.795 2°49.133 5.7 283 15.6 100570 48
2011-07-08 06:12 51°26.01 2°49.046 7.4 285 15.5 100570 47
2011-07-08 06:13 51°26.232 2°48.955 5.6 283 15.5 100560 48
2011-07-08 06:14 51°26.446 2°48.866 8.5 285 15.5 100560 48
2011-07-08 06:15 51°26.661 2°48.768 8 277 15.5 100560 47
2011-07-08 06:16 51°26.88 2°48.671 5.7 281 15.5 100570 49
2011-07-08 06:17 51°27.096 2°48.579 8 281 15.5 100570 48
2011-07-08 06:18 51°27.312 2°48.481 8.9 281 15.5 100560 48
2011-07-08 06:19 51°27.527 2°48.389 12.3 285 15.6 100560 48
2011-07-08 06:20 51°27.743 2°48.3 8.1 279 15.5 100560 48
2011-07-08 06:21 51°27.957 2°48.21 9.3 282 15.5 100550 49
2011-07-08 06:22 51°28.178 2°48.118 7.7 280 15.4 100570 48
2011-07-08 06:23 51°28.391 2°48.027 6.7 283 15.4 100550 47
2011-07-08 06:24 51°28.609 2°47.948 8 281 15.4 100570 47
2011-07-08 06:25 51°28.831 2°47.869 9 282 15.4 100550 48
2011-07-08 06:26 51°29.047 2°47.778 8.7 284 15.3 100550 48
2011-07-08 06:27 51°29.261 2°47.678 8.3 284 15.3 100550 48
2011-07-08 06:28 51°29.471 2°47.589 8 278 15.4 100550 49
2011-07-08 06:29 51°29.692 2°47.494 7.6 286 15.4 100550 49
2011-07-08 06:30 51°29.907 2°47.406 11.3 283 15.4 100560 49
2011-07-08 06:31 51°30.128 2°47.312 9 279 15.4 100550 47
2011-07-08 06:32 51°30.342 2°47.218 15.8 282 15.5 100540 48
2011-07-08 06:33 51°30.553 2°47.122 12.7 285 15.4 100530 48
2011-07-08 06:34 51°30.767 2°47.028 10.6 280 15.3 100530 48
2011-07-08 06:35 51°30.987 2°46.942 13 281 15.3 100530 48
2011-07-08 06:36 51°31.202 2°46.858 5.5 279 15.2 100530 48
2011-07-08 06:37 51°31.419 2°46.777 5.9 280 15.2 100550 48
2011-07-08 06:38 51°31.643 2°46.684 5.5 279 15.1 100540 48
2011-07-08 06:39 51°31.857 2°46.595 6.5 284 15.2 100550 46
2011-07-08 06:40 51°32.08 2°46.506 4.8 280 15.2 100560 48
2011-07-08 06:41 51°32.296 2°46.416 5.6 280 15.2 100560 48
2011-07-08 06:42 51°32.508 2°46.323 10.1 280 15.2 100560 48
2011-07-08 06:43 51°32.729 2°46.233 9.5 279 15.1 100550 48
2011-07-08 06:44 51°32.952 2°46.145 10.1 282 15.2 100560 48
2011-07-08 06:45 51°33.17 2°46.052 11.8 286 15.2 100560 48
2011-07-08 06:46 51°33.389 2°45.954 9.6 278 15.2 100570 48
2011-07-08 06:47 51°33.606 2°45.866 10 279 15.2 100560 47
2011-07-08 06:48 51°33.827 2°45.778 11.4 279 15.2 100560 48
2011-07-08 06:49 51°34.045 2°45.683 12.9 287 15.2 100570 49
2011-07-08 06:50 51°34.267 2°45.589 10.2 281 15.2 100560 48
2011-07-08 06:51 51°34.479 2°45.496 10.9 285 15.2 100570 47
2011-07-08 06:52 51°34.694 2°45.411 10.5 286 15.1 100580 48
2011-07-08 06:53 51°34.908 2°45.324 9.4 280 15.2 100560 48
2011-07-08 06:54 51°35.128 2°45.229 8 285 15.1 100560 47
2011-07-08 06:55 51°35.347 2°45.141 10 285 15.1 100580 46
2011-07-08 06:56 51°35.568 2°45.051 7.2 283 15.1 100560 46
2011-07-08 06:57 51°35.785 2°44.967 9.1 280 15.1 100570 45
2011-07-08 06:58 51°36.008 2°44.872 8.5 284 15.1 100560 45
2011-07-08 06:59 51°36.227 2°44.783 8.4 282 15.2 100570 46
2011-07-08 07:00 51°36.45 2°44.694 9.3 280 15.2 100580 46
2011-07-08 07:01 51°36.672 2°44.61 10.8 282 15.2 100570 45
2011-07-08 07:02 51°36.906 2°44.544 7.7 278 15.2 100570 45
2011-07-08 07:03 51°37.142 2°44.477 7.9 285 15.3 100570 44
2011-07-08 07:04 51°37.368 2°44.401 9.8 278 15.3 100570 46
2011-07-08 07:05 51°37.597 2°44.331 10.2 280 15.3 100570 45
2011-07-08 07:06 51°37.821 2°44.242 8.9 284 15.3 100570 46
2011-07-08 07:07 51°38.047 2°44.168 7.9 277 15.3 100570 45
2011-07-08 07:08 51°38.27 2°44.109 8.7 278 15.3 100570 45
2011-07-08 07:09 51°38.498 2°44.044 8.9 284 15.4 100580 46
2011-07-08 07:10 51°38.722 2°43.97 9.1 278 15.4 100580 45
2011-07-08 07:11 51°38.949 2°43.896 5.6 281 15.4 100570 44
2011-07-08 07:12 51°39.177 2°43.823 11.2 285 15.5 100570 46
2011-07-08 07:13 51°39.404 2°43.741 9.8 279 15.5 100580 46
2011-07-08 07:14 51°39.631 2°43.669 7.8 281 15.5 100580 46
2011-07-08 07:15 51°39.856 2°43.601 6.6 279 15.5 100580 46
2011-07-08 07:16 51°40.08 2°43.526 8.1 281 15.4 100580 46
2011-07-08 07:17 51°40.301 2°43.458 8.7 279 15.4 100590 46
2011-07-08 07:18 51°40.534 2°43.379 9.5 281 15.4 100580 46
2011-07-08 07:19 51°40.757 2°43.292 8.3 282 15.4 100570 45
2011-07-08 07:20 51°40.979 2°43.225 8.8 280 15.4 100580 46
2011-07-08 07:21 51°41.207 2°43.153 6.5 282 15.3 100590 47
2011-07-08 07:22 51°41.429 2°43.085 8.9 282 15.3 100580 47
2011-07-08 07:23 51°41.654 2°42.999 9.2 284 15.3 100580 47
2011-07-08 07:24 51°41.871 2°42.919 6.6 280 15.3 100590 47
2011-07-08 07:25 51°42.101 2°42.851 6.2 286 15.3 100610 46
2011-07-08 07:26 51°42.328 2°42.79 8.3 279 15.3 100590 47
2011-07-08 07:27 51°42.552 2°42.727 7.5 279 15.3 100580 46
2011-07-08 07:28 51°42.776 2°42.665 7 284 15.4 100590 47
2011-07-08 07:29 51°43.002 2°42.59 11.8 279 15.4 100580 47
2011-07-08 07:30 51°43.229 2°42.503 7.9 280 15.4 100590 47
2011-07-08 07:31 51°43.451 2°42.429 10.5 280 15.4 100580 46
2011-07-08 07:32 51°43.682 2°42.362 8.7 279 15.5 100580 48
2011-07-08 07:33 51°43.906 2°42.297 9.9 280 15.4 100590 47
2011-07-08 07:34 51°44.138 2°42.226 10.1 279 15.4 100590 47
2011-07-08 07:35 51°44.35 2°42.155 8.1 285 15.4 100580 46
2011-07-08 07:36 51°44.528 2°42.102 8.1 284 15.4 100580 46
2011-07-08 07:37 51°44.676 2°42.058 7.9 285 15.4 100590 47
2011-07-08 07:38 51°44.784 2°42.033 6 285 15.3 100590 47
2011-07-08 07:39 51°44.852 2°42.025 8.7 281 15.3 100590 46
2011-07-08 07:40 51°44.885 2°42.059 8.4 286 15.3 100590 47
2011-07-08 07:41 51°44.913 2°42.097 7.4 287 15.3 100580 47
2011-07-08 07:42 51°44.944 2°42.129 9.4 280 15.2 100570 47
2011-07-08 07:43 51°44.975 2°42.164 9.3 282 15.2 100580 46
2011-07-08 07:44 51°45.005 2°42.202 7.8 282 15.2 100600 47
2011-07-08 07:45 51°45.036 2°42.244 6.8 279 15.3 100590 47
2011-07-08 07:46 51°45.067 2°42.284 9 280 15.3 100600 48
2011-07-08 07:47 51°45.096 2°42.322 8 279 15.4 100590 49
2011-07-08 07:48 51°45.125 2°42.361 10.5 76 15.5 100580 48
2011-07-08 07:49 51°45.155 2°42.398 11.5 77 15.4 100590 49
2011-07-08 07:50 51°45.184 2°42.434 11.3 291 15.3 100610 47
2011-07-08 07:51 51°45.211 2°42.468 9.7 279 15.2 100580 46
2011-07-08 07:52 51°45.241 2°42.503 6.8 280 15.1 100580 47
2011-07-08 07:53 51°45.27 2°42.534 7.8 280 15.3 100590 48
2011-07-08 07:54 51°45.303 2°42.564 8.8 284 15.2 100600 48
2011-07-08 07:55 51°45.334 2°42.593 9.1 285 15.3 100590 48
2011-07-08 07:56 51°45.369 2°42.617 7.6 285 15.3 100600 48
2011-07-08 07:57 51°45.404 2°42.631 13.7 281 15.3 100610 47
2011-07-08 07:58 51°45.442 2°42.639 11.2 282 15.3 100610 48
2011-07-08 07:59 51°45.482 2°42.63 5.6 285 15.4 100590 47
2011-07-08 08:00 51°45.518 2°42.596 5.4 280 15.4 100590 47
2011-07-08 08:01 51°45.554 2°42.547 10.9 281 15.4 100590 48
2011-07-08 08:02 51°45.587 2°42.494 14.8 285 15.4 100570 48
2011-07-08 08:03 51°45.624 2°42.435 5.4 279 15.4 100590 48
2011-07-08 08:04 51°45.662 2°42.38 5.4 280 15.4 100570 47
2011-07-08 08:05 51°45.705 2°42.331 12.1 283 15.4 100600 48
2011-07-08 08:06 51°45.742 2°42.286 11.1 280 15.4 100600 47
2011-07-08 08:07 51°45.777 2°42.271 5.2 278 15.4 100600 46
2011-07-08 08:08 51°45.815 2°42.27 13.6 280 15.4 100600 48
2011-07-08 08:09 51°45.88 2°42.248 9.4 81 15.5 100600 48
2011-07-08 08:10 51°45.961 2°42.365 9.3 18 15.5 100590 48
2011-07-08 08:11 51°45.916 2°42.475 14.1 284 15.4 100570 48
2011-07-08 08:12 51°45.832 2°42.495 14.7 349 15.2 100570 47
2011-07-08 08:13 51°45.741 2°42.52 15.5 284 15.2 100550 47
2011-07-08 08:14 51°45.644 2°42.528 7 281 15.2 100540 47
2011-07-08 08:15 51°45.554 2°42.511 10.6 284 15.3 100560 46
2011-07-08 08:16 51°45.48 2°42.475 6.1 280 15.4 100580 48
2011-07-08 08:17 51°45.354 2°42.433 17.4 282 15.4 100570 48
2011-07-08 08:18 51°45.18 2°42.442 20.2 281 15.4 100560 48
2011-07-08 08:19 51°45.017 2°42.35 5.6 280 15.4 100540 47
2011-07-08 08:20 51°44.929 2°42.264 6.5 280 15.4 100550 47
2011-07-08 08:21 51°44.952 2°42.263 9.7 282 15.5 100610 48
2011-07-08 08:22 51°44.98 2°42.297 7.1 279 15.6 100630 48
2011-07-08 08:23 51°45.007 2°42.326 10.3 80 15.7 100620 46
2011-07-08 08:24 51°45.037 2°42.351 9.1 279 15.6 100620 48
2011-07-08 08:25 51°45.069 2°42.375 7 283 15.6 100630 47
2011-07-08 08:26 51°45.102 2°42.399 7.7 285 15.6 100620 48
2011-07-08 08:27 51°45.136 2°42.423 10.6 283 15.5 100640 48
2011-07-08 08:28 51°45.17 2°42.447 9.1 278 15.6 100640 48
2011-07-08 08:29 51°45.201 2°42.47 6.2 281 15.6 100620 48
2011-07-08 08:30 51°45.232 2°42.497 7 279 15.7 100620 48
2011-07-08 08:31 51°45.264 2°42.524 7.3 282 15.6 100620 46
2011-07-08 08:32 51°45.295 2°42.55 8.2 280 15.6 100600 48
2011-07-08 08:33 51°45.327 2°42.573 8.3 283 15.5 100630 48
2011-07-08 08:34 51°45.36 2°42.594 8.2 285 15.5 100620 48
2011-07-08 08:35 51°45.393 2°42.614 9.7 279 15.5 100640 48
2011-07-08 08:36 51°45.423 2°42.635 5.5 279 15.4 100650 48
2011-07-08 08:37 51°45.455 2°42.659 8.9 281 15.5 100620 48
2011-07-08 08:38 51°45.485 2°42.682 7.1 278 15.5 100620 49
2011-07-08 08:39 51°45.515 2°42.706 6.2 280 15.5 100640 46
2011-07-08 08:40 51°45.546 2°42.728 6.8 281 15.5 100640 48
2011-07-08 08:41 51°45.578 2°42.753 6.8 281 15.5 100630 48
2011-07-08 08:42 51°45.609 2°42.775 8.3 281 15.5 100630 48
2011-07-08 08:43 51°45.639 2°42.798 9.2 280 15.4 100640 48
2011-07-08 08:44 51°45.668 2°42.82 10.4 282 15.3 100640 48
2011-07-08 08:45 51°45.695 2°42.842 7.1 282 15.4 100630 48
2011-07-08 08:46 51°45.723 2°42.863 7.6 281 15.5 100630 48
2011-07-08 08:47 51°45.754 2°42.884 10 282 15.4 100640 45
2011-07-08 08:48 51°45.783 2°42.903 9.5 284 15.4 100640 48
2011-07-08 08:49 51°45.814 2°42.922 11.3 279 15.4 100640 48
2011-07-08 08:50 51°45.843 2°42.941 11.8 280 15.5 100650 48
2011-07-08 08:51 51°45.872 2°42.963 8.8 280 15.5 100650 47
2011-07-08 08:52 51°45.899 2°42.988 11.3 280 15.5 100640 47
2011-07-08 08:53 51°45.926 2°43.011 9.3 284 15.5 100640 48
2011-07-08 08:54 51°45.956 2°43.033 4.4 279 15.5 100650 47
2011-07-08 08:55 51°45.984 2°43.054 8.6 279 15.5 100640 46
2011-07-08 08:56 51°46.013 2°43.074 9.7 285 15.5 100650 48
2011-07-08 08:57 51°46.044 2°43.094 8.1 279 15.5 100650 47
2011-07-08 08:58 51°46.077 2°43.105 10.3 284 15.6 100650 48
2011-07-08 08:59 51°46.103 2°43.055 10.7 281 15.6 100620 48
2011-07-08 09:00 51°46.07 2°43.01 14.4 281 15.5 100610 47
2011-07-08 09:01 51°45.915 2°43.007 18.7 283 15.6 100610 48
2011-07-08 09:02 51°45.737 2°42.998 16.4 282 15.5 100600 48
2011-07-08 09:03 51°45.559 2°42.937 16.1 284 15.5 100600 47
2011-07-08 09:04 51°45.392 2°42.821 4.5 279 15.5 100580 48
2011-07-08 09:05 51°45.225 2°42.704 4.4 280 15.6 100580 47
2011-07-08 09:06 51°45.054 2°42.59 20.6 284 15.5 100600 48
2011-07-08 09:07 51°44.889 2°42.485 17.9 280 15.5 100620 47
2011-07-08 09:08 51°44.72 2°42.38 7.5 281 15.6 100610 48
2011-07-08 09:09 51°44.559 2°42.277 12.4 279 15.6 100570 47
2011-07-08 09:10 51°44.531 2°42.194 12 282 15.6 100600 48
2011-07-08 09:11 51°44.558 2°42.177 7.3 281 15.7 100660 47
2011-07-08 09:12 51°44.589 2°42.179 9 282 15.8 100660 47
2011-07-08 09:13 51°44.619 2°42.189 9.3 281 15.8 100680 47
2011-07-08 09:14 51°44.646 2°42.205 13.8 283 15.8 100660 48
2011-07-08 09:15 51°44.673 2°42.221 12 277 15.8 100680 47
2011-07-08 09:16 51°44.7 2°42.238 8.3 281 15.8 100670 47
2011-07-08 09:17 51°44.727 2°42.254 6.5 278 16 100670 48
2011-07-08 09:18 51°44.753 2°42.269 9.3 285 15.9 100670 47
2011-07-08 09:19 51°44.78 2°42.284 13 284 15.9 100680 47
2011-07-08 09:20 51°44.806 2°42.302 7 285 15.9 100680 48
2011-07-08 09:21 51°44.832 2°42.321 7.3 281 15.8 100690 48
2011-07-08 09:22 51°44.858 2°42.342 8.6 282 15.8 100670 48
2011-07-08 09:23 51°44.882 2°42.363 6.8 278 15.8 100680 47
2011-07-08 09:24 51°44.907 2°42.382 6.3 279 15.7 100690 48
2011-07-08 09:25 51°44.932 2°42.402 7.5 281 15.6 100680 48
2011-07-08 09:26 51°44.958 2°42.419 7.4 279 15.6 100690 48
2011-07-08 09:27 51°44.985 2°42.434 10.6 284 15.6 100680 46
2011-07-08 09:28 51°45.01 2°42.448 8.1 280 15.7 100680 48
2011-07-08 09:29 51°45.035 2°42.466 9.5 278 15.6 100680 48
2011-07-08 09:30 51°45.059 2°42.484 8.2 280 15.7 100690 48
2011-07-08 09:31 51°45.083 2°42.501 8.2 286 15.7 100690 47
2011-07-08 09:32 51°45.111 2°42.514 8.1 279 15.7 100690 47
2011-07-08 09:33 51°45.15 2°42.477 12.8 284 15.7 100680 48
2011-07-08 09:34 51°45.185 2°42.416 9.3 285 15.7 100680 48
2011-07-08 09:35 51°45.214 2°42.351 11.7 280 15.8 100640 46
2011-07-08 09:36 51°45.24 2°42.279 11.6 283 15.7 100660 47
2011-07-08 09:37 51°45.246 2°42.205 10.2 281 15.7 100660 47
2011-07-08 09:38 51°45.234 2°42.135 12 282 15.7 100650 48
2011-07-08 09:39 51°45.233 2°42.074 6.1 283 15.6 100610 47
2011-07-08 09:40 51°45.236 2°42.003 5.9 282 15.6 100640 46
2011-07-08 09:41 51°45.25 2°41.942 11.9 279 15.6 100680 47
2011-07-08 09:42 51°45.257 2°41.868 13.5 284 15.6 100640 47
2011-07-08 09:43 51°45.266 2°41.808 10.3 280 15.5 100640 44
2011-07-08 09:44 51°45.267 2°41.749 10.3 286 15.5 100650 46
2011-07-08 09:45 51°45.26 2°41.684 13.3 283 15.5 100660 46
2011-07-08 09:46 51°45.242 2°41.606 5.6 278 15.5 100650 46
2011-07-08 09:47 51°45.214 2°41.541 5.4 282 15.6 100660 47
2011-07-08 09:48 51°45.185 2°41.489 10.2 285 15.5 100680 47
2011-07-08 09:49 51°45.155 2°41.417 11.5 284 15.4 100660 47
2011-07-08 09:50 51°45.128 2°41.337 13.3 282 15.3 100650 47
2011-07-08 09:51 51°45.111 2°41.263 12.9 277 15.3 100670 46
2011-07-08 09:52 51°45.095 2°41.173 5.8 283 15.3 100670 48
2011-07-08 09:53 51°45.087 2°41.088 10.5 284 15.3 100650 48
2011-07-08 09:54 51°45.083 2°41.008 10.4 281 15.2 100660 48
2011-07-08 09:55 51°45.077 2°40.916 5.8 277 15.2 100650 48
2011-07-08 09:56 51°45.072 2°40.822 11.6 281 15.2 100670 48
2011-07-08 09:57 51°45.077 2°40.732 12.7 278 15.2 100670 48
2011-07-08 09:58 51°45.083 2°40.633 11.4 279 15.2 100640 48
2011-07-08 09:59 51°45.081 2°40.534 10 284 15.2 100670 47
2011-07-08 10:00 51°45.035 2°40.516 11.4 357 15.3 100680 49
2011-07-08 10:01 51°44.984 2°40.664 8.1 5 15.2 100660 48
2011-07-08 10:02 51°44.889 2°40.892 12.9 353 15.2 100680 49
2011-07-08 10:03 51°44.728 2°41.071 16.2 279 15.2 100660 49
2011-07-08 10:04 51°44.553 2°41.199 14.5 276 15.2 100640 48
2011-07-08 10:05 51°44.368 2°41.328 15.7 347 15.2 100630 48
2011-07-08 10:06 51°44.189 2°41.451 12.9 345 15.3 100650 48
2011-07-08 10:07 51°44.003 2°41.569 6.8 282 15.3 100650 46
2011-07-08 10:08 51°43.82 2°41.676 12.2 279 15.3 100640 48
2011-07-08 10:09 51°43.63 2°41.788 7.1 283 15.3 100660 48
2011-07-08 10:10 51°43.445 2°41.9 15.8 346 15.3 100650 47
2011-07-08 10:11 51°43.263 2°42.017 17.6 351 15.3 100650 48
2011-07-08 10:12 51°43.12 2°42.244 12 4 15.3 100650 48
2011-07-08 10:13 51°43.064 2°42.556 11.8 9 15.3 100660 47
2011-07-08 10:14 51°43.038 2°42.895 10.2 11 15.4 100680 48
2011-07-08 10:15 51°43.006 2°43.222 8.7 5 15.4 100690 47
2011-07-08 10:16 51°42.902 2°43.504 12.5 360 15.4 100680 47
2011-07-08 10:17 51°42.741 2°43.698 14.9 352 15.5 100670 47
2011-07-08 10:18 51°42.549 2°43.798 13.6 283 15.5 100670 47
2011-07-08 10:19 51°42.356 2°43.887 15.5 282 15.6 100670 48
2011-07-08 10:20 51°42.164 2°43.976 16.3 282 15.5 100680 47
2011-07-08 10:21 51°41.971 2°44.056 15.2 279 15.6 100690 48
2011-07-08 10:22 51°41.778 2°44.13 13.5 278 15.6 100650 48
2011-07-08 10:23 51°41.577 2°44.204 6.6 282 15.7 100680 47
2011-07-08 10:24 51°41.386 2°44.283 14.8 279 15.7 100660 48
2011-07-08 10:25 51°41.187 2°44.359 13.7 348 15.7 100660 47
2011-07-08 10:26 51°40.991 2°44.435 5.3 349 15.8 100670 46
2011-07-08 10:27 51°40.798 2°44.515 14 280 15.9 100660 45
2011-07-08 10:28 51°40.601 2°44.589 15 281 16.1 100670 46
2011-07-08 10:29 51°40.407 2°44.666 14.8 281 16 100670 46
2011-07-08 10:30 51°40.206 2°44.748 12.4 276 16 100680 47
2011-07-08 10:31 51°40.01 2°44.82 16 278 15.9 100680 45
2011-07-08 10:32 51°39.815 2°44.928 13.9 349 16 100670 45
2011-07-08 10:33 51°39.628 2°45.043 4.4 353 16 100670 45
2011-07-08 10:34 51°39.439 2°45.171 9.7 354 16 100680 43
2011-07-08 10:35 51°39.25 2°45.297 5.4 352 16.1 100660 44
2011-07-08 10:36 51°39.063 2°45.427 14.5 352 16 100660 43
2011-07-08 10:37 51°38.877 2°45.559 15.8 352 16.1 100680 43
2011-07-08 10:38 51°38.691 2°45.684 5.3 353 16.1 100680 44
2011-07-08 10:39 51°38.501 2°45.817 18.8 354 16.2 100690 43
2011-07-08 10:40 51°38.329 2°45.983 16.3 357 16.1 100680 43
2011-07-08 10:41 51°38.145 2°46.139 14.4 358 16.1 100690 44
2011-07-08 10:42 51°37.963 2°46.278 17.9 353 16.2 100690 44
2011-07-08 10:43 51°37.777 2°46.431 14.2 355 16.2 100680 43
2011-07-08 10:44 51°37.609 2°46.618 15 357 16.2 100680 43
2011-07-08 10:45 51°37.434 2°46.785 13.2 355 16.2 100700 44
2011-07-08 10:46 51°37.251 2°46.931 17.7 353 16.3 100700 45
2011-07-08 10:47 51°37.073 2°47.073 7.3 351 16.3 100680 42
2011-07-08 10:48 51°36.895 2°47.218 11.1 356 16.2 100680 41
2011-07-08 10:49 51°36.718 2°47.375 17.7 358 16.2 100680 41
2011-07-08 10:50 51°36.536 2°47.533 7.5 354 16.3 100680 40
2011-07-08 10:51 51°36.353 2°47.698 7.6 354 16.4 100700 42
2011-07-08 10:52 51°36.173 2°47.85 11.2 353 16.3 100700 42
2011-07-08 10:53 51°35.989 2°48.013 15.6 353 16.3 100710 41
2011-07-08 10:54 51°35.809 2°48.168 13.2 353 16.4 100700 42
2011-07-08 10:55 51°35.622 2°48.324 13.5 350 16.4 100690 39
2011-07-08 10:56 51°35.44 2°48.479 17.9 352 16.4 100690 41
2011-07-08 10:57 51°35.26 2°48.638 14.3 356 16.4 100690 39
2011-07-08 10:58 51°35.079 2°48.789 15 352 16.5 100700 40
2011-07-08 10:59 51°34.895 2°48.944 16.7 350 16.6 100710 40
2011-07-08 11:00 51°34.709 2°49.1 7.4 351 16.5 100700 40
2011-07-08 11:01 51°34.525 2°49.251 15.7 353 16.5 100720 41
2011-07-08 11:02 51°34.339 2°49.402 15.5 352 16.6 100710 41
2011-07-08 11:03 51°34.157 2°49.551 4.4 353 16.5 100710 38
2011-07-08 11:04 51°33.971 2°49.709 15.2 351 16.5 100700 40
2011-07-08 11:05 51°33.788 2°49.856 14.6 352 16.6 100700 40
2011-07-08 11:06 51°33.6 2°50.012 12.5 352 16.6 100710 40
2011-07-08 11:07 51°33.419 2°50.161 13.6 279 16.6 100700 41
2011-07-08 11:08 51°33.229 2°50.311 16.7 351 16.6 100710 40
2011-07-08 11:09 51°33.043 2°50.46 12 279 16.6 100720 39
2011-07-08 11:10 51°32.861 2°50.607 6.3 352 16.6 100720 40
2011-07-08 11:11 51°32.672 2°50.76 14.5 354 16.7 100720 40
2011-07-08 11:12 51°32.484 2°50.906 17.2 354 16.7 100730 40
2011-07-08 11:13 51°32.3 2°51.058 5.1 281 16.7 100730 39
2011-07-08 11:14 51°32.115 2°51.21 7.9 352 16.9 100720 41
2011-07-08 11:15 51°31.929 2°51.359 14.4 354 16.8 100730 40
2011-07-08 11:16 51°31.75 2°51.519 6.1 357 16.9 100730 40
2011-07-08 11:17 51°31.626 2°51.74 14.2 8 16.9 100720 39
2011-07-08 11:18 51°31.556 2°51.868 7.5 3 16.9 100750 39
2011-07-08 11:19 51°31.49 2°52.02 9.4 17 17 100740 39
2011-07-08 11:20 51°31.474 2°52.244 13.6 9 17 100780 40
2011-07-08 11:21 51°31.412 2°52.347 12.2 346 17 100750 39
2011-07-08 11:22 51°31.352 2°52.322 7.1 284 17 100750 38
2011-07-08 11:23 51°31.345 2°52.241 5.3 280 17.1 100760 39
2011-07-08 11:24 51°31.356 2°52.189 14.3 283 17.2 100780 41
2011-07-08 11:25 51°31.366 2°52.141 5.9 283 17.1 100780 40
2011-07-08 11:26 51°31.375 2°52.094 5 281 17.1 100770 39
2011-07-08 11:27 51°31.386 2°52.046 10.2 281 17 100780 37
2011-07-08 11:28 51°31.396 2°51.984 5.9 279 17.1 100750 39
2011-07-08 11:29 51°31.401 2°51.912 15 280 17.1 100780 39
2011-07-08 11:30 51°31.403 2°51.837 5.8 281 17.1 100770 39
2011-07-08 11:31 51°31.404 2°51.763 5.4 279 17.1 100760 39
2011-07-08 11:32 51°31.405 2°51.691 5.8 280 17.1 100760 39
2011-07-08 11:33 51°31.408 2°51.625 10.7 281 17 100760 39
2011-07-08 11:34 51°31.411 2°51.561 11.8 283 17 100770 39
2011-07-08 11:35 51°31.417 2°51.492 11.7 281 17.1 100770 38
2011-07-08 11:36 51°31.424 2°51.424 5.4 277 17 100780 40
2011-07-08 11:37 51°31.429 2°51.357 12.4 286 17 100780 40
2011-07-08 11:38 51°31.432 2°51.296 10.9 283 17 100780 40
2011-07-08 11:39 51°31.435 2°51.238 11.4 280 17 100780 41
2011-07-08 11:40 51°31.443 2°51.176 10.8 287 16.9 100780 40
2011-07-08 11:41 51°31.436 2°51.094 5.9 279 17 100790 40
2011-07-08 11:42 51°31.355 2°51.079 11 12 17 100770 41
2011-07-08 11:43 51°31.324 2°51.297 9.3 21 17 100800 41
2011-07-08 11:44 51°31.302 2°51.618 8.4 13 17 100800 40
2011-07-08 11:45 51°31.281 2°51.933 9.3 16 17 100790 40
2011-07-08 11:46 51°31.295 2°52.26 9.5 18 17 100800 40
2011-07-08 11:47 51°31.308 2°52.486 6.4 76 17 100800 39
2011-07-08 11:48 51°31.366 2°52.493 9.1 289 17 100800 40
2011-07-08 11:49 51°31.379 2°52.469 12.1 310 17.1 100800 39
2011-07-08 11:50 51°31.376 2°52.469 7.6 283 17.1 100800 40
2011-07-08 11:51 51°31.372 2°52.471 8.9 279 17.1 100820 38
2011-07-08 11:52 51°31.369 2°52.467 8.1 281 17.1 100810 41
2011-07-08 11:53 51°31.367 2°52.462 6.1 282 17.1 100820 40
2011-07-08 11:54 51°31.366 2°52.457 6.1 303 17.1 100820 41
2011-07-08 11:55 51°31.363 2°52.448 8.9 279 17.1 100820 42
2011-07-08 11:56 51°31.361 2°52.441 9 281 17.1 100820 41
2011-07-08 11:57 51°31.357 2°52.432 11.7 280 17.1 100820 42
2011-07-08 11:58 51°31.355 2°52.425 9.6 305 17 100830 40
2011-07-08 11:59 51°31.352 2°52.416 7.7 283 17 100820 39
2011-07-08 12:00 51°31.348 2°52.409 10.5 283 17 100830 41
2011-07-08 12:01 51°31.345 2°52.401 7.7 282 17 100820 41
2011-07-08 12:02 51°31.366 2°52.369 8 283 17 100820 40
2011-07-08 12:03 51°31.416 2°52.423 8.7 28 17.1 100820 42
2011-07-08 12:04 51°31.376 2°52.628 8.4 15 17.1 100810 41
2011-07-08 12:05 51°31.317 2°52.93 6.9 6 17.1 100810 41
2011-07-08 12:06 51°31.233 2°53.226 10.1 13 17.1 100800 40
2011-07-08 12:07 51°31.146 2°53.52 8.8 8 17.1 100800 40
2011-07-08 12:08 51°31.062 2°53.811 9.4 10 17.1 100810 40
2011-07-08 12:09 51°30.983 2°54.118 12.1 9 17.1 100810 41
2011-07-08 12:10 51°30.897 2°54.416 10.5 11 17.2 100800 41
2011-07-08 12:11 51°30.814 2°54.715 9 7 17.3 100800 41
2011-07-08 12:12 51°30.739 2°55.012 8.8 6 17.3 100790 41
2011-07-08 12:13 51°30.662 2°55.316 11.8 8 17.4 100790 40
2011-07-08 12:14 51°30.584 2°55.608 11.9 8 17.5 100790 40
2011-07-08 12:15 51°30.522 2°55.907 11.6 13 17.6 100780 38
2011-07-08 12:16 51°30.467 2°56.205 14.3 9 17.6 100790 39
2011-07-08 12:17 51°30.403 2°56.497 11.7 11 17.6 100790 40
2011-07-08 12:18 51°30.339 2°56.798 12.7 13 17.6 100790 39
2011-07-08 12:19 51°30.278 2°57.101 10.2 7 17.7 100790 40
2011-07-08 12:20 51°30.214 2°57.399 9.3 5 17.7 100800 42
2011-07-08 12:21 51°30.153 2°57.7 8.1 6 17.7 100800 39
2011-07-08 12:22 51°30.092 2°58.004 15.6 9 17.7 100790 40
2011-07-08 12:23 51°30.03 2°58.309 12.8 9 17.7 100790 37
2011-07-08 12:24 51°29.967 2°58.613 8.3 6 17.8 100790 40
2011-07-08 12:25 51°29.904 2°58.912 13.6 9 17.7 100790 39
2011-07-08 12:26 51°29.846 2°59.205 14.2 14 17.8 100800 40
2011-07-08 12:27 51°29.781 2°59.508 11.1 12 17.8 100780 39
2011-07-08 12:28 51°29.722 2°59.804 11.1 12 17.8 100800 38
2011-07-08 12:29 51°29.66 3°0.102 9.1 6 17.9 100790 40
2011-07-08 12:30 51°29.602 3°0.403 10 8 17.8 100790 39
2011-07-08 12:31 51°29.541 3°0.706 10 10 17.9 100800 39
2011-07-08 12:32 51°29.479 3°1.01 9.9 12 17.9 100800 41
2011-07-08 12:33 51°29.421 3°1.314 10.1 9 17.9 100800 40
2011-07-08 12:34 51°29.358 3°1.614 10.5 10 17.9 100810 41
2011-07-08 12:35 51°29.299 3°1.91 9.4 8 17.9 100810 42
2011-07-08 12:36 51°29.229 3°2.212 9.8 7 17.9 100800 41
2011-07-08 12:37 51°29.156 3°2.508 10.1 6 17.8 100790 39
2011-07-08 12:38 51°29.087 3°2.802 13.6 10 17.9 100790 39
2011-07-08 12:39 51°29.018 3°3.095 11.4 9 17.9 100800 37
2011-07-08 12:40 51°28.95 3°3.39 10.1 7 18 100790 40
2011-07-08 12:41 51°28.88 3°3.681 8.6 5 18 100790 39
2011-07-08 12:42 51°28.813 3°3.975 8.7 6 18 100790 39
2011-07-08 12:43 51°28.745 3°4.27 10.3 11 18 100800 39
2011-07-08 12:44 51°28.673 3°4.562 10.1 7 18 100800 40
2011-07-08 12:45 51°28.602 3°4.865 9.3 6 18 100790 39
2011-07-08 12:46 51°28.536 3°5.164 8.5 2 18.1 100800 40
2011-07-08 12:47 51°28.47 3°5.462 8.3 4 18.1 100800 37
2011-07-08 12:48 51°28.399 3°5.763 8.7 3 18.1 100800 40
2011-07-08 12:49 51°28.328 3°6.06 10.9 4 18.1 100800 39
2011-07-08 12:50 51°28.258 3°6.362 9.2 9 18.1 100800 40
2011-07-08 12:51 51°28.188 3°6.664 9.4 2 18.2 100800 40
2011-07-08 12:52 51°28.119 3°6.967 10.3 1 18.2 100800 41
2011-07-08 12:53 51°28.051 3°7.271 8.4 8 18.2 100800 39
2011-07-08 12:54 51°27.981 3°7.575 9.6 5 18.2 100800 39
2011-07-08 12:55 51°27.909 3°7.874 8.7 7 18.2 100800 37
2011-07-08 12:56 51°27.84 3°8.187 8.5 7 18.2 100810 40
2011-07-08 12:57 51°27.784 3°8.504 10.2 12 18.3 100810 41
2011-07-08 12:58 51°27.732 3°8.821 8.6 10 18.3 100810 39
2011-07-08 12:59 51°27.677 3°9.141 10.5 10 18.3 100800 38
2011-07-08 13:00 51°27.621 3°9.46 10 11 18.4 100810 39
2011-07-08 13:01 51°27.567 3°9.782 9.8 15 18.5 100800 38
2011-07-08 13:02 51°27.509 3°10.101 10.9 13 18.5 100810 38
2011-07-08 13:03 51°27.453 3°10.422 8.8 13 18.5 100810 36
2011-07-08 13:04 51°27.404 3°10.745 9 12 18.6 100810 38
2011-07-08 13:05 51°27.35 3°11.065 7.3 7 18.6 100810 39
2011-07-08 13:06 51°27.297 3°11.384 12.6 11 18.6 100800 39
2011-07-08 13:07 51°27.247 3°11.706 10.2 20 18.6 100810 37
2011-07-08 13:08 51°27.215 3°12.031 11.8 13 18.7 100810 39
2011-07-08 13:09 51°27.169 3°12.352 11.1 17 18.7 100810 39
2011-07-08 13:10 51°27.141 3°12.677 7.7 13 18.7 100820 38
2011-07-08 13:11 51°27.1 3°13.004 12.1 9 18.7 100810 37
2011-07-08 13:12 51°27.053 3°13.33 11.2 12 18.6 100810 38
2011-07-08 13:13 51°27.025 3°13.653 10.6 10 18.7 100810 39
2011-07-08 13:14 51°26.972 3°13.943 12.4 12 18.7 100800 40
2011-07-08 13:15 51°26.936 3°14.134 11.3 19 18.6 100800 39
2011-07-08 13:16 51°26.921 3°14.264 4.3 40 18.6 100800 37
2011-07-08 13:17 51°26.961 3°14.311 10.6 81 18.7 100840 37
2011-07-08 13:18 51°26.971 3°14.309 11 82 18.8 100850 37
2011-07-08 13:19 51°26.973 3°14.306 9.4 280 18.8 100850 36
2011-07-08 13:20 51°26.97 3°14.307 8.5 285 18.7 100850 37
2011-07-08 13:21 51°26.965 3°14.311 11.9 280 18.8 100850 37
2011-07-08 13:22 51°26.959 3°14.319 11 278 18.8 100840 36
2011-07-08 13:23 51°26.952 3°14.329 5.4 281 18.9 100840 36
2011-07-08 13:24 51°26.947 3°14.343 6.9 278 18.9 100840 37
2011-07-08 13:25 51°26.941 3°14.357 7.3 280 18.9 100840 38
2011-07-08 13:26 51°26.935 3°14.371 9.3 279 18.9 100850 38
2011-07-08 13:27 51°26.929 3°14.384 7.2 280 18.8 100840 35
2011-07-08 13:28 51°26.936 3°14.364 10 281 18.8 100850 36
2011-07-08 13:29 51°26.95 3°14.287 9.7 280 18.8 100840 38
2011-07-08 13:30 51°26.951 3°14.191 6.1 283 18.9 100840 38
2011-07-08 13:31 51°26.945 3°14.12 11.6 278 18.9 100840 37
2011-07-08 13:32 51°26.942 3°14.062 9.2 280 18.8 100830 37
2011-07-08 13:33 51°26.975 3°14.019 7.9 279 18.9 100850 37
2011-07-08 13:34 51°27.016 3°13.964 9.7 285 18.8 100850 37
2011-07-08 13:35 51°27.041 3°13.894 9.7 279 18.8 100820 36
2011-07-08 13:36 51°27.05 3°13.835 10.8 283 18.9 100840 38
2011-07-08 13:37 51°27.056 3°13.779 9.5 285 18.9 100840 36
2011-07-08 13:38 51°27.058 3°13.722 9.4 286 18.9 100830 36
2011-07-08 13:39 51°27.057 3°13.662 10.1 278 18.9 100830 37
2011-07-08 13:40 51°27.053 3°13.605 10 277 18.9 100830 35
2011-07-08 13:41 51°27.046 3°13.547 8.6 280 19 100840 36
2011-07-08 13:42 51°27.053 3°13.5 6.5 282 19 100840 36
2011-07-08 13:43 51°27.078 3°13.476 5.8 283 19 100850 34
2011-07-08 13:44 51°27.101 3°13.445 7.7 285 18.9 100850 35
2011-07-08 13:45 51°27.114 3°13.407 10.5 276 18.9 100840 36
2011-07-08 13:46 51°27.113 3°13.391 11.3 279 18.9 100840 36
2011-07-08 13:47 51°27.108 3°13.387 10.3 282 19 100850 37
2011-07-08 13:48 51°27.101 3°13.389 11.8 286 19 100840 37
2011-07-08 13:49 51°27.094 3°13.399 11.7 280 19.1 100840 38
2011-07-08 13:50 51°27.085 3°13.416 5.5 280 19.1 100840 37
2011-07-08 13:51 51°27.074 3°13.431 6.8 279 19 100840 37
2011-07-08 13:52 51°27.083 3°13.408 4.6 283 19 100840 37
2011-07-08 13:53 51°27.081 3°13.273 9.7 279 19 100820 36
2011-07-08 13:54 51°27.087 3°13.035 11.7 281 19 100830 35
2011-07-08 13:55 51°27.096 3°12.723 6.5 281 19.1 100820 37
2011-07-08 13:56 51°27.094 3°12.402 13.5 277 19.1 100820 37
2011-07-08 13:57 51°27.089 3°12.081 15.4 281 19 100820 36
2011-07-08 13:58 51°27.024 3°11.777 13.1 281 19.1 100820 35
2011-07-08 13:59 51°26.919 3°11.486 12.2 282 19.1 100830 36
2011-07-08 14:00 51°26.809 3°11.188 8.1 282 19.1 100830 36
2011-07-08 14:01 51°26.721 3°10.892 8.6 281 19.1 100820 37
2011-07-08 14:02 51°26.63 3°10.591 11.2 282 19.2 100830 36
2011-07-08 14:03 51°26.523 3°10.299 7.3 280 19.1 100830 36
2011-07-08 14:04 51°26.431 3°10.005 7.4 281 19.2 100820 37
2011-07-08 14:05 51°26.336 3°9.707 7.5 282 19.1 100820 36
2011-07-08 14:06 51°26.236 3°9.413 17 281 19.2 100820 37
2011-07-08 14:07 51°26.119 3°9.123 17.7 283 19.1 100820 36
2011-07-08 14:08 51°26.001 3°8.843 7.2 279 19.2 100820 35
2011-07-08 14:09 51°25.888 3°8.557 6.7 282 19.1 100830 35
2011-07-08 14:10 51°25.765 3°8.285 7.2 282 19.2 100830 36
2011-07-08 14:11 51°25.648 3°7.986 8.1 280 19.1 100830 37
2011-07-08 14:12 51°25.523 3°7.718 8.4 280 19.1 100830 37
2011-07-08 14:13 51°25.377 3°7.469 7.9 286 19 100830 36
2011-07-08 14:14 51°25.238 3°7.209 9.8 281 19 100820 36
2011-07-08 14:15 51°25.092 3°6.964 8.7 281 19 100820 36
2011-07-08 14:16 51°24.947 3°6.72 17.6 282 19 100820 37
2011-07-08 14:17 51°24.806 3°6.46 7.1 279 19 100810 37
2011-07-08 14:18 51°24.667 3°6.19 3.5 284 18.9 100820 37
2011-07-08 14:19 51°24.601 3°5.872 7.2 279 18.9 100810 36
2011-07-08 14:20 51°24.537 3°5.549 6.8 278 18.9 100800 36
2011-07-08 14:21 51°24.468 3°5.236 17.2 282 18.9 100800 37
2011-07-08 14:22 51°24.365 3°4.943 7.5 283 18.8 100810 36
2011-07-08 14:23 51°24.231 3°4.679 7.5 280 18.9 100800 36
2011-07-08 14:24 51°24.093 3°4.421 3.3 279 18.8 100810 37
2011-07-08 14:25 51°23.953 3°4.171 7.4 281 18.8 100810 37
2011-07-08 14:26 51°23.805 3°3.926 7.2 281 18.8 100800 37
2011-07-08 14:27 51°23.663 3°3.664 7.1 280 18.8 100790 36
2011-07-08 14:28 51°23.527 3°3.417 6.7 281 18.8 100810 37
2011-07-08 14:29 51°23.377 3°3.158 12.3 281 18.8 100810 38
2011-07-08 14:30 51°23.241 3°2.902 6.6 280 18.8 100800 37
2011-07-08 14:31 51°23.1 3°2.649 16.5 282 18.7 100820 37
2011-07-08 14:32 51°22.955 3°2.396 4.1 281 18.3 100830 39
2011-07-08 14:33 51°22.818 3°2.141 7.8 281 17.9 100830 40
2011-07-08 14:34 51°22.677 3°1.888 4 281 17.5 100830 40
2011-07-08 14:35 51°22.537 3°1.629 12.5 286 17.4 100830 39
2011-07-08 14:36 51°22.394 3°1.365 13.3 285 17.4 100840 40
2011-07-08 14:37 51°22.254 3°1.105 6.5 281 17.5 100820 39
2011-07-08 14:38 51°22.108 3°0.857 14.6 279 17.6 100820 39
2011-07-08 14:39 51°21.974 3°0.595 15.1 284 17.7 100820 38
2011-07-08 14:40 51°21.832 3°0.339 6.6 282 17.9 100820 38
2011-07-08 14:41 51°21.688 3°0.084 6.1 280 18 100820 38
2011-07-08 14:42 51°21.546 2°59.821 10.9 279 18.1 100810 38
2011-07-08 14:43 51°21.405 2°59.563 6 280 18.2 100800 38
2011-07-08 14:44 51°21.268 2°59.301 6.2 278 18.3 100790 38
2011-07-08 14:45 51°21.119 2°59.049 5.5 279 18.3 100790 39
2011-07-08 14:46 51°20.986 2°58.798 13 281 18.3 100790 38
2011-07-08 14:47 51°20.849 2°58.537 14.4 330 18.4 100790 38
2011-07-08 14:48 51°20.705 2°58.28 12 280 18.4 100810 38
2011-07-08 14:49 51°20.562 2°58.026 6 302 18.5 100810 38
2011-07-08 14:50 51°20.431 2°57.763 6.5 285 18.4 100800 38
2011-07-08 14:51 51°20.292 2°57.505 10.3 333 18.2 100800 38
2011-07-08 14:52 51°20.147 2°57.247 12.7 330 18.2 100810 39
2011-07-08 14:53 51°20.015 2°56.987 7.2 329 18.2 100790 38
2011-07-08 14:54 51°19.88 2°56.724 11.2 330 18.3 100780 39
2011-07-08 14:55 51°19.737 2°56.466 5.8 329 18.4 100780 36
2011-07-08 14:56 51°19.598 2°56.21 5.7 306 18.5 100780 37
2011-07-08 14:57 51°19.464 2°55.955 5.7 278 18.6 100790 38
2011-07-08 14:58 51°19.321 2°55.699 6.2 303 18.7 100780 38
2011-07-08 14:59 51°19.187 2°55.439 9.8 303 18.8 100780 38
2011-07-08 15:00 51°19.047 2°55.191 16.5 331 18.9 100770 38
2011-07-08 15:01 51°18.909 2°54.932 12.6 331 18.7 100790 39
2011-07-08 15:02 51°18.769 2°54.674 12.2 335 18.5 100800 40
2011-07-08 15:03 51°18.629 2°54.42 45.6 328 18.3 100780 38
2011-07-08 15:04 51°18.491 2°54.173 12 330 18.4 100780 39
2011-07-08 15:05 51°18.348 2°53.92 6.2 332 18.5 100790 38
2011-07-08 15:06 51°18.21 2°53.666 5.4 330 18.6 100760 38
2011-07-08 15:07 51°18.069 2°53.427 5.8 331 18.6 100780 37
2011-07-08 15:08 51°17.927 2°53.174 6.3 282 18.7 100780 38
2011-07-08 15:09 51°17.794 2°52.919 6.6 331 18.8 100780 39
2011-07-08 15:10 51°17.635 2°52.703 17.1 328 18.7 100780 39
2011-07-08 15:11 51°17.455 2°52.568 7.6 333 18.8 100760 35
2011-07-08 15:12 51°17.251 2°52.527 16.4 340 19.1 100760 36
2011-07-08 15:13 51°17.049 2°52.593 8 279 19.3 100750 36
2011-07-08 15:14 51°16.853 2°52.704 7.3 341 19.4 100740 36
2011-07-08 15:15 51°16.656 2°52.813 4.8 282 19.5 100750 36
2011-07-08 15:16 51°16.458 2°52.92 3.4 338 19.6 100760 38
2011-07-08 15:17 51°16.269 2°53.036 13.5 344 19.5 100760 36
2011-07-08 15:18 51°16.087 2°53.198 16.2 350 19.6 100750 36
2011-07-08 15:19 51°15.92 2°53.393 6.6 347 19.6 100750 35
2011-07-08 15:20 51°15.753 2°53.584 13 349 19.5 100740 35
2011-07-08 15:21 51°15.583 2°53.77 17.3 346 19.6 100740 36
2011-07-08 15:22 51°15.413 2°53.956 17 350 19.6 100730 36
2011-07-08 15:23 51°15.249 2°54.155 6.6 347 19.7 100740 35
2011-07-08 15:24 51°15.085 2°54.354 13.8 349 19.7 100750 36
2011-07-08 15:25 51°14.923 2°54.545 14.5 348 19.7 100730 35
2011-07-08 15:26 51°14.761 2°54.745 14.9 351 19.7 100730 35
2011-07-08 15:27 51°14.604 2°54.942 6.4 347 19.8 100750 34
2011-07-08 15:28 51°14.442 2°55.133 11.1 282 19.8 100730 34
2011-07-08 15:29 51°14.303 2°55.269 7 343 20 100770 33
2011-07-08 15:30 51°14.195 2°55.365 7.6 344 20.1 100780 34
2011-07-08 15:31 51°14.073 2°55.453 8.5 331 20.1 100780 34
2011-07-08 15:32 51°13.928 2°55.554 11.2 341 20.2 100770 33
2011-07-08 15:33 51°13.813 2°55.642 11.3 284 20.3 100760 34
2011-07-08 15:34 51°13.742 2°55.746 9.6 280 20.3 100770 33
2011-07-08 15:35 51°13.69 2°55.856 7.9 354 20.4 100780 33
2011-07-08 15:36 51°13.654 2°55.951 4.9 352 20.4 100790 34
2011-07-08 15:37 51°13.64 2°56.016 8.9 356 20.5 100780 33